Hourly Data Report for June 18, 2018

TORONTO CITY
ONTARIO
Current Station Operator: ECCC - MSC

43°40'00.000" N
79°24'00.000" W
112.50 m
6158355
71508
XTO

Download Data

Hourly Data (June 2018)
Hourly Data Report for June 18, 2018
TIME
LST
Temp Definition
°C
Dew Point Definition
°C
Rel Hum Definition
%
Precip. Amount Definition
mm

Wind Dir Definition
10's deg

Wind Spd Definition
km/h
Visibility Definition
km
Stn Press Definition
kPa
Hmdx Definition


Wind Chill Definition


Weather Definition


00:00 23.6 17.8 70 0.0 LegendMM LegendMM   100.03 29   LegendNANA
01:00 23.4 17.9 71 0.0 LegendMM LegendMM   100.00 29   LegendNANA
02:00 24.5 18.7 70 0.0 LegendMM LegendMM   99.95 31   LegendNANA
03:00 23.8 18.0 70 0.0 LegendMM LegendMM   99.89 30   LegendNANA
04:00 22.6 18.1 76 0.0 LegendMM LegendMM   99.86 29   LegendNANA
05:00 23.0 18.6 76 0.0 LegendMM LegendMM   99.84 29   LegendNANA
06:00 23.8 19.5 77 0.0 LegendMM LegendMM   99.83 31   LegendNANA
07:00 26.0 19.2 66 0.0 LegendMM LegendMM   99.82 33   LegendNANA
08:00 29.4 19.9 57 0.0 LegendMM LegendMM   99.80 37   LegendNANA
09:00 30.8 20.6 55 0.0 LegendMM LegendMM   99.75 39   LegendNANA
10:00 32.3 20.8 51 0.0 LegendMM LegendMM   99.73 41   LegendNANA
11:00 28.3 18.1 54 0.0 LegendMM LegendMM   99.73 34   LegendNANA
12:00 27.3 25.1 88 17.2 LegendMM LegendMM   99.67 40   LegendNANA
13:00 28.8 19.8 58 0.0 LegendMM LegendMM   99.63 36   LegendNANA
14:00 26.1 18.4 63 0.0 LegendMM LegendMM   99.68 32   LegendNANA
15:00 25.7 19.6 69 0.3 LegendMM LegendMM   99.68 33   LegendNANA
16:00 26.4 20.4 70 0.9 LegendMM LegendMM   99.53 34   LegendNANA
17:00 27.3 20.5 67 0.0 LegendMM LegendMM   99.51 35   LegendNANA
18:00 24.9 19.9 74 0.0 LegendMM LegendMM   99.51 32   LegendNANA
19:00 27.2 19.8 64 0.0 LegendMM LegendMM   99.55 35   LegendNANA
20:00 25.7 18.5 64 0.0 LegendMM LegendMM   99.59 32   LegendNANA
21:00 23.2 17.9 72 0.0 LegendMM LegendMM   99.70 29   LegendNANA
22:00 22.7 17.5 73 0.0 LegendMM LegendMM   99.73 28   LegendNANA
23:00 21.5 16.4 73 0.0 LegendMM LegendMM   99.82 26   LegendNANA

Notes on Data Quality.

Legend

  • E = Estimated
  • M = Missing
  • NA = Not Available*
  • [empty] = Indicates an unobserved value
Date modified: